#timestamp,LO_Frequency,Hit,StdDev 
1457539215.3,286046997.1,N
1457539235.1,286047000.8,N
1457539255.9,286046999.2,N
1457539275.7,286046995.3,N
1457539295.5,286046995.1,N
1457539315.3,286046997.6,N
1457539335.2,286046994.9,N
1457539355.0,286046999.2,N
1457539355.9,286046999.2,N
1457539375.7,286046997.2,N
1457539395.6,286046995.8,N
1457539415.4,286046993.9,N
1457539435.2,286046994.8,N
1457539455.1,286046991.0,Y
1457539456.0,286046991.0,P
1457539475.8,286046992.9,N
1457539495.6,286046990.6,P
1457539515.5,286046994.6,N
1457539535.3,286046991.9,Y
1457539555.1,286046998.4,P
1457539575.9,286046996.2,N
1457539595.7,286046993.8,N
1457539615.5,286046994.3,N
1457539635.4,286046992.5,Y
1457539655.2,286046998.5,P
1457539675.0,286046997.5,N
1457539675.9,286046997.5,N
1457539695.8,286046995.8,Y
1457539715.6,286047001.1,P
1457539735.4,286046999.2,N
1457539755.3,286047000.7,N
1457539775.1,286047001.0,N
1457539795.8,286046998.9,N
1457539815.7,286046995.2,Y
1457539835.5,286046995.6,P
1457539855.3,286046999.4,N
1457539875.2,286046995.3,N
1457539895.9,286046993.4,Y
1457539915.7,286046996.2,P
1457539935.6,286046993.1,P
1457539955.4,286046997.6,N
1457539975.2,286046995.8,N
1457539995.1,286046992.0,Y
1457539996.0,286046992.0,P
1457540015.8,286046993.6,P
1457540035.6,286046995.3,N
1457540055.5,286046996.2,N
1457540075.3,286046996.1,N
1457540095.1,286046995.6,N
1457540115.9,286046998.8,N
1457540135.7,286047000.2,N
1457540155.5,286047002.3,N
1457540175.4,286047000.2,N
1457540195.2,286047001.0,N
1457540215.0,286046998.6,N
1457540215.9,286046998.6,N
1457540235.8,286046999.3,N
1457540255.6,286046997.8,N
1457540275.4,286046997.5,N
1457540295.2,286046993.7,N
1457540315.1,286046994.2,N
1457540316.0,286046994.2,N
1457540335.8,286046993.6,N
1457540355.6,286046996.5,N
1457540375.5,286047000.2,N
1457540395.3,286046996.7,N
1457540415.1,286046996.1,N
1457540435.9,286046997.6,N
1457540455.7,286046995.5,N
1457540475.5,286046991.9,Y
1457540495.4,286046996.0,P
1457540515.2,286046997.1,P
1457540535.0,286046994.0,P
1457540535.9,286046994.0,Y
1457540555.8,286046998.0,P
1457540575.6,286046999.9,N
1457540595.4,286046998.5,N
1457540615.3,286047001.0,N
1457540635.1,286046998.4,N
1457540655.8,286047001.0,N
1457540675.7,286046998.9,N
1457540695.5,286046998.3,N
1457540715.3,286047001.0,N
1457540735.2,286047001.5,N
1457540755.9,286047001.7,N
1457540775.7,286047004.1,N
1457540795.6,286047003.9,N
1457540815.4,286047003.2,N
1457540835.2,286047004.0,N
1457540855.0,286047006.0,N
1457540855.9,286047006.0,N
1457540875.8,286047005.0,N
1457540895.6,286047004.9,N
1457540915.5,286047006.6,N
1457540935.3,286047006.7,N
1457540955.1,286047008.5,N
1457540975.9,286047009.0,N
1457540995.7,286047014.9,Y
1457541015.5,286047011.1,P
1457541035.4,286047010.5,N
1457541055.2,286047009.9,N
1457541075.0,286047011.1,Y
1457541075.9,286047011.1,P
1457541095.8,286047005.9,P
1457541115.6,286047004.3,N
1457541135.4,286047005.8,N
1457541155.2,286047006.7,N
1457541175.1,286047007.1,Y
1457541176.0,286047007.1,P
1457541195.8,286046999.3,P
1457541215.7,286046999.2,N
1457541235.5,286046996.8,N
1457541255.3,286046997.3,N
1457541275.1,286047001.1,N
1457541295.9,286047000.7,N
1457541315.7,286046998.3,N
1457541335.5,286046996.5,N
1457541355.4,286046995.8,N
1457541375.2,286046995.4,N
1457541395.0,286046995.9,N
1457541395.9,286046995.9,N
1457541415.8,286046995.0,N
1457541435.6,286046991.8,N
1457541455.4,286046990.6,N
1457541475.3,286046992.0,N
1457541495.1,286046991.7,N
1457541496.0,286046991.7,N
1457541515.8,286046987.1,N
1457541535.7,286046983.8,Y
1457541555.5,286046983.7,P
1457541575.3,286046985.5,N
1457541595.2,286046985.7,N
1457541615.9,286046986.4,N
1457541635.7,286046988.0,N
1457541655.6,286046986.5,Y
1457541675.4,286046999.6,P
1457541695.2,286046999.2,N
1457541715.1,286046999.1,N
1457541716.0,286046999.1,N
1457541735.8,286047002.8,N
1457541755.6,286046998.5,N
1457541775.4,286047002.3,N
1457541795.3,286047004.0,N
1457541815.1,286047000.6,N
1457541835.8,286047003.8,N
1457541855.7,286047004.6,N
1457541875.5,286047002.9,N
1457541895.3,286047001.7,N
1457541915.2,286047007.1,N
1457541935.9,286047006.6,N
1457541955.7,286047008.3,N
1457541975.6,286047008.0,N
1457541995.4,286047011.7,N
1457542015.2,286047011.6,N
1457542035.1,286047009.7,N
1457542036.0,286047009.7,N
1457542055.8,286047007.3,N
1457542075.6,286047007.9,N
1457542095.4,286047012.2,N
1457542115.3,286047011.7,N
1457542135.1,286047012.3,N
1457542155.8,286047011.0,N
1457542175.7,286047009.6,N
1457542195.5,286047012.3,N
1457542215.3,286047012.3,N
1457542235.2,286047011.5,N
1457542255.9,286047011.5,N
1457542275.7,286047009.4,N
1457542295.6,286047009.2,N
1457542315.4,286047012.4,Y
1457542335.2,286047007.3,P
1457542355.1,286047007.3,P
1457542356.0,286047007.3,P
1457542375.8,286047008.0,Y
1457542395.6,286047000.6,P
1457542415.5,286047000.2,N
1457542435.3,286047004.1,N
1457542455.1,286047008.3,N
1457542475.9,286047012.3,Y
1457542495.7,286047006.4,P
1457542515.5,286047006.4,P
1457542535.4,286047005.0,P
1457542555.2,286047005.8,Y
1457542575.0,286046999.2,P
1457542575.9,286046999.2,N
1457542595.8,286046995.2,N
1457542615.6,286046993.3,N
1457542635.4,286046994.7,N
1457542655.3,286046990.6,N
1457542675.1,286046990.2,N
1457542676.0,286046990.2,N
1457542695.8,286046990.8,N
1457542715.7,286046989.7,N
1457542735.5,286046988.1,N
1457542755.3,286046987.2,N
1457542775.1,286046991.3,N
1457542795.9,286046992.8,N
